User: anonymous   Login
Location: Unspecified
(0.0000°N, 0.0000°E)
Time: 08:03:27
(UTC+00:00)
Language:

NUDTSAT - Orbit

View from above orbital plane
View from above orbital plane
View from above satellite
View from above satellite

Ground track
Ground track

The orbit data is extracted from the following two-line orbital elements,

1 42787U 17036Y   19345.89220190 +.00001535 +00000-0 +66297-4 0  9996
2 42787 097.3332 040.6971 0011474 336.7184 023.3525 15.23947047136971
Epoch (UTC): 11 December 2019 21:24:46
Eccentricity: 0.0011474
inclination: 97.3332°
perigee height: 486 km
apogee height: 502 km
right ascension of ascending node: 40.6971°
argument of perigee: 336.7184°
revolutions per day: 15.23947047
mean anomaly at epoch: 23.3525°
orbit number at epoch: 13697

The dashed part of the orbit path shows where the satellite is in the earth's shadow,  

DLR